Weather in Bohynivka

Ukraine / Dnipropetrovsk Region     48°29′17″N   36°21′16″E
temp.,
°C
wind,
m/s
gust,
m/s
humid.,
%
clouds,
%
prec.,
mm/h
press.,
hPa
HPBL,
m
9 march, tue
tue923:00−1wnw3787100 0.1 1012386
02:00−2w378670 0.1 1013211
05:00−2wnw498040 0.0 1014561
08:00−2nw687322 0.0 1016787
11:00−1nw675699 0.1 10171286
14:000nw674799 0.1 10181554
17:00−2nw575791 0.0 10191147
20:00−3nnw486651 0.0 1022584
10 march, wed
wed1023:00−4nnw466515 0.0 1023788
02:00−5nnw456617 0.0 1025775
05:00−5nnw346583 0.0 1026772
08:00−5n345652 0.0 1027779
11:00−2nne334034 0.0 10271090
14:00−1nne223467 0.0 10271250
17:00−2ne344088 0.0 1026241
20:00−4ne374959 0.0 1027253
11 march, thu
thu1123:00−4ene37471 0.0 1027388
02:00−4ene36490 0.0 1027482
05:00−5ene47500 0.0 1027534
08:00−5ene57470 0.0 1029698
11:00−2ene56420 0.0 10291023
14:00−2ene56393 0.0 10281260
17:00−4ene563882 0.0 10281152
20:00−5ene563144 0.0 1030920
12 march, fri
fri1223:00−6e46310 0.0 1031901
02:00−7e46340 0.0 1031777
05:00−8e45380 0.0 1032613
08:00−7ese46360 0.0 1032639
11:00−4se452513 0.0 10321000
14:00−2sse452352 0.0 10311194
17:00−3se4628100 0.0 10301014
20:00−4sse483396 0.0 1031720
13 march, sat
sat1323:00−4s5936100 0.0 1031745
02:00−5sse594182 0.0 1031663
05:00−5sse5104169 0.0 1030500
08:00−3sse7104371 0.0 1030594
11:000s793778 0.0 1030764
14:00+2s673478 0.0 1028899
17:00+1sse474517 0.0 1027317
20:00−2sse4105014 0.0 1027367